Location: Wells
(51.2093°N, 2.6446°W)
Time: 22:14:09
(UTC+00:00)

QB50P2 - Visible Passes

Search period start: 12 March 2026 00:00
Search period end: 22 March 2026 00:00
Orbit: 519 x 531 km, 98.1° (Epoch: 12 March)

Date Brightness Start Highest point End Pass type
(mag) Time Alt. Az. Time Alt. Az. Time Alt. Az.
12 Mar ? 04:43:32 10° NE 04:46:42 24° E 04:49:50 10° SSE visible
13 Mar ? 04:31:49 10° NE 04:34:33 19° E 04:37:16 10° SE visible
14 Mar ? 04:20:16 10° NE 04:22:22 14° E 04:24:28 10° ESE visible
15 Mar ? 04:09:18 10° ENE 04:10:09 11° E 04:11:00 10° E visible
15 Mar ? 05:41:04 10° NNE 05:44:53 83° WNW 05:48:40 10° SSW visible
16 Mar ? 05:28:59 10° NNE 05:32:47 73° ESE 05:36:34 10° S visible
17 Mar ? 05:16:55 10° NNE 05:20:39 53° ESE 05:24:20 10° S visible
18 Mar ? 05:04:53 10° NNE 05:08:28 39° E 05:12:01 10° S visible
19 Mar ? 04:52:54 10° NE 04:56:15 29° E 04:59:34 10° SSE visible
20 Mar ? 04:40:59 10° NE 04:44:00 22° E 04:46:59 10° SE visible
21 Mar ? 04:29:12 10° NE 04:31:42 17° E 04:34:12 10° SE visible
